User: anonymous   Login
Location: Unspecified
(0.0000°N, 0.0000°E)
Time: 18:56:16
(UTC+00:00)
Language:

Oscar 18 - Orbit

View from above orbital plane
View from above orbital plane
View from above satellite
View from above satellite

Ground track
Ground track

The orbit data is extracted from the following two-line orbital elements,

1 20441U 90005F   19340.88135830 +.00000013 +00000-0 +21331-4 0  9996
2 20441 098.6903 285.5821 0011890 021.0812 053.2475 14.32820345560528
Epoch (UTC): 06 December 2019 21:09:09
Eccentricity: 0.0011890
inclination: 98.6903°
perigee height: 774 km
apogee height: 791 km
right ascension of ascending node: 285.5821°
argument of perigee: 21.0812°
revolutions per day: 14.32820345
mean anomaly at epoch: 53.2475°
orbit number at epoch: 56052

The dashed part of the orbit path shows where the satellite is in the earth's shadow,  

DLR